Location: Newark
(46.0333°N, 5.8167°E)
Time: 08:20:11
(UTC+00:00)

Envisat - Pass Details

Date: 23 September 2019
Orbit: 764 x 766 km, 98.1° (Epoch: 21 October)

Event Time Altitude Azimuth Distance (km) Brightness Sun altitude
Rises 19:12:26 0° 216° (SW) 3,222 6.5 -17.8°
Reaches altitude 10° 19:15:57 10° 242° (WSW) 2,302 6.0 -18.3°
Maximum altitude 19:18:29 14° 272° (W) 2,056 6.2 -18.7°
Drops below altitude 10° 19:21:01 10° 303° (WNW) 2,311 6.7 -19.2°
Sets 19:24:35 0° 329° (NNW) 3,243 7.1 -19.7°
